Вернуться в каталог

FENGYUN 1C DEB

АктивенSSO
NORAD 30706·DEBRIS·🇨🇳 China

Запущен May 10, 1999 с Taiyuan Satellite Launch Center

Loading…

Ближайшие Пролёты (ближайшие 24 часа)

TLE

СвежийSource: Space-Track

Эпоха: Sep 14, 2026, 05:04 UTC

1 30706U 99025ARQ 26257.21127930  .00001094  00000-0  46381-3 0  9997
2 30706  99.0461 166.4633 0027912  55.7558 304.6260 14.27346046 15567

Отслеживайте FENGYUN 1C DEB в реальном времени с AllMySat

Download on the App Store